This is the latest recevied weather packets stored in our database for station/object W2OBX. If no packets are shown the sender has not sent any weather packets the latest 10 day(s).
| Time | Temp. | Humidity | Pressure | Rain* | Wind** | Luminosity | Snow |
|---|---|---|---|---|---|---|---|
| 1777487416 | 21.67° C | 84% | 1011.7 hPa | 0 mm | - | 281 W/m² | - |
| 1777487113 | 21.11° C | 85% | 1011.8 hPa | 0 mm | - | 662 W/m² | - |
| 1777486809 | 21.11° C | 83% | 1012 hPa | 0 mm | - | 386 W/m² | - |
| 1777486507 | 21.11° C | 84% | 1012.1 hPa | 0 mm | - | 54 W/m² | - |
| 1777486204 | 21.11° C | 85% | 1012 hPa | 0 mm | - | 160 W/m² | - |
| 1777485902 | 20.56° C | 84% | 1012.2 hPa | 0 mm | - | 67 W/m² | - |
| 1777485596 | 20.56° C | 84% | 1012.2 hPa | 0 mm | - | 126 W/m² | - |
| 1777485292 | 20.56° C | 83% | 1012.3 hPa | 0 mm | - | 25 W/m² | - |
| 1777484989 | 20.56° C | 83% | 1012.1 hPa | 0 mm | - | 46 W/m² | - |
| 1777484686 | 20.56° C | 83% | 1012.1 hPa | 0 mm | - | 44 W/m² | - |
| 1777484383 | 20.56° C | 82% | 1011.9 hPa | 0 mm | - | 30 W/m² | - |
| 1777484079 | 20.56° C | 82% | 1012.1 hPa | 0 mm | - | 33 W/m² | - |
| 1777483775 | 20.56° C | 82% | 1011.9 hPa | 0 mm | - | 55 W/m² | - |
| 1777483472 | 21.11° C | 81% | 1012 hPa | 0 mm | - | 51 W/m² | - |
| 1777483166 | 21.11° C | 80% | 1012 hPa | 0 mm | - | 60 W/m² | - |
| 1777482864 | 21.11° C | 83% | 1012.1 hPa | 0 mm | - | 65 W/m² | - |
| 1777482559 | 21.67° C | 79% | 1012.3 hPa | 0 mm | - | 56 W/m² | - |
| 1777482257 | 22.22° C | 79% | 1012.2 hPa | 0 mm | - | 115 W/m² | - |
| 1777481954 | 21.67° C | 78% | 1012 hPa | 0 mm | - | 258 W/m² | - |
| 1777481652 | 21.67° C | 78% | 1012.3 hPa | 0 mm | - | 747 W/m² | - |
| 1777481349 | 21.11° C | 80% | 1012.4 hPa | 0 mm | - | 195 W/m² | - |
| 1777481045 | 20.56° C | 83% | 1012.3 hPa | 0 mm | - | 191 W/m² | - |
| 1777480741 | 20° C | 83% | 1012.6 hPa | 0 mm | - | 132 W/m² | - |
| 1777480438 | 20° C | 84% | 1012.9 hPa | 0 mm | - | 101 W/m² | - |
| 1777480134 | 20° C | 84% | 1013 hPa | 0 mm | - | 49 W/m² | - |
* Rain latest hour (hover to see other rain measurements)
** Current wind speed in m/s (hover to see current wind gust speed)